Theta_e
348 348 345 343 338 336 334 333 333 327 328 335 337 342 341 342 345 347 348 344 342 340 337 335 336 338 340 342 342 341 340 340 338 339 339 339 337 336
349 348 347 347 345 340 338 335 331 331 328 331 336 340 341 341 342 345 344 342 339 339 336 333 334 335 337 337 337 337 337 337 336 337 337 337 338 334
351 350 350 348 347 346 342 338 334 331 329 336 332 338 341 342 343 344 342 340 340 335 335 333 332 333 334 335 334 334 335 335 335 335 336 336 336 332
351 351 351 350 349 349 346 344 339 336 333 332 337 334 338 342 342 341 340 339 338 335 332 332 331 330 330 330 330 330 330 331 332 332 333 334 333 329
353 352 352 352 351 350 348 346 343 341 336 332 334 335 336 338 338 339 340 341 340 336 330 330 330 329 328 327 326 325 324 325 325 326 328 329 329 326
353 353 353 352 352 352 351 350 349 343 340 336 338 338 338 340 337 336 336 337 337 339 337 333 331 330 329 326 325 325 321 321 320 321 321 322 323 324
353 353 354 353 348 349 352 352 351 346 345 340 340 341 338 339 337 342 336 338 339 339 339 338 335 332 331 328 330 330 325 323 320 320 318 317 317 318
353 353 354 348 347 340 339 340 348 348 346 345 344 342 343 345 345 339 338 333 331 338 335 335 339 336 339 333 331 329 325 323 322 320 319 315 315 316
353 354 353 354 348 354 343 336 336 336 340 351 349 348 347 349 349 344 340 336 335 341 335 331 336 333 336 334 328 327 324 323 323 320 319 316 314 313
353 353 352 352 353 352 353 353 352 350 346 346 349 352 354 355 354 349 343 340 339 339 339 330 337 333 335 336 329 328 325 323 322 320 318 315 311 309
353 354 354 354 342 333 351 352 353 354 343 334 335 335 334 333 336 344 340 338 335 336 337 333 334 331 333 332 331 329 324 320 319 320 320 313 308 306
352 354 335 347 333 328 349 352 350 352 356 357 348 340 335 341 333 338 343 338 337 333 338 332 330 330 325 329 334 331 328 318 317 317 313 310 306 314
350 352 355 329 323 322 325 354 351 353 352 353 354 354 352 349 349 353 349 341 337 336 337 334 329 325 320 318 321 325 325 318 320 316 308 306 306 312
353 355 355 325 319 319 321 328 328 329 349 348 348 348 349 350 352 352 349 344 343 339 335 333 329 325 317 314 317 318 320 322 321 316 313 306 305 305
356 348 333 319 317 319 318 321 319 337 339 341 341 343 347 350 352 350 342 337 335 336 335 333 332 325 318 312 317 318 316 313 316 313 313 314 312 312
332 343 335 333 328 335 335 324 331 337 340 341 341 345 345 346 342 341 334 330 328 328 334 331 326 320 312 314 317 317 315 313 312 313 312 311 311 312
340 348 340 342 343 342 341 339 335 336 336 337 338 339 340 337 334 334 332 329 327 324 319 314 314 315 315 313 311 313 312 311 312 310 311 308 308 309
336 346 345 344 344 343 341 339 337 335 337 338 338 338 334 334 330 330 331 330 326 321 315 312 314 311 311 315 314 309 309 310 309 309 310 308 306 307
344 345 346 347 346 344 342 337 334 336 339 337 338 337 334 333 329 330 330 326 323 321 316 314 315 311 311 309 312 310 311 309 307 306 306 307 307 307
343 347 347 346 342 340 337 334 335 335 336 337 336 333 332 331 331 328 327 324 322 319 313 311 312 315 315 312 309 312 306 310 309 306 303 305 305 304
339 339 341 340 337 335 336 336 334 331 334 334 332 332 332 331 329 328 325 315 315 320 317 314 315 311 311 314 311 309 310 304 309 309 304 305 305 305
335 336 333 336 336 334 333 332 330 327 329 332 333 332 331 330 329 327 325 319 321 321 320 315 311 311 312 313 311 310 308 308 306 305 305 306 305 302
332 331 328 328 329 331 331 329 329 329 330 328 330 329 330 328 329 327 323 325 323 320 316 312 309 311 310 311 310 310 309 309 307 304 305 305 305 305
Wind_Speed
5 5 4 3 3 3 3 2 3 2 3 2 3 3 5 5 8 9 10 12 15 14 13 13 12 12 12 10 9 9 9 9 7 8 8 7 4 3
5 5 4 3 4 4 4 3 2 2 4 2 2 3 2 5 8 9 11 12 14 16 16 16 16 15 13 12 11 10 10 8 7 7 9 6 5 3
6 6 7 5 4 4 4 4 4 4 5 4 2 2 3 5 6 7 9 9 9 16 18 19 19 18 16 16 13 12 11 9 8 7 8 6 5 5
10 8 9 6 8 6 5 7 6 5 4 11 3 4 7 5 6 6 7 9 9 14 19 21 20 19 17 18 17 15 10 9 7 7 6 7 6 5
11 11 11 9 9 7 8 8 7 6 6 6 8 3 4 3 5 7 7 9 9 14 16 20 21 18 22 17 17 13 8 8 7 7 7 9 8 6
11 11 11 11 12 10 9 9 7 7 6 8 8 9 6 4 5 7 9 7 10 10 15 14 15 23 23 20 16 14 12 6 6 6 5 7 8 7
11 11 11 13 15 13 8 9 8 8 7 8 9 9 8 7 9 5 8 10 11 7 7 8 9 9 12 19 18 19 15 13 10 9 7 9 8 8
11 11 12 12 14 16 17 17 12 9 10 9 10 12 14 10 9 9 11 7 8 6 6 10 4 8 3 3 14 12 16 16 13 10 10 11 10 10
13 12 10 10 13 13 15 17 17 17 18 14 16 14 15 11 12 12 11 10 12 6 4 8 5 8 7 10 22 23 20 20 15 12 12 12 12 10
14 14 14 13 11 12 12 13 13 12 14 13 16 17 16 15 12 11 11 11 9 5 4 9 6 7 8 11 21 23 21 17 15 13 12 13 13 9
14 14 14 13 13 14 12 14 14 12 11 18 19 19 17 17 11 7 10 9 9 7 5 5 4 2 1 2 8 17 16 13 10 12 13 11 11 13
12 14 14 15 13 15 14 14 15 13 12 12 7 13 17 17 18 13 11 9 9 5 5 6 4 2 3 2 3 5 7 10 9 9 12 14 15 7
11 10 10 15 18 17 18 14 15 13 12 7 7 6 6 8 9 7 7 8 7 7 2 3 2 3 4 2 2 2 4 4 6 7 11 12 10 9
11 9 10 14 16 17 13 17 18 12 7 7 7 7 6 6 6 7 8 8 6 6 5 4 3 3 3 3 4 3 5 6 8 8 7 11 14 11
11 11 11 13 15 11 13 14 7 6 6 6 7 7 5 4 6 5 1 4 3 1 6 3 5 3 3 3 5 4 6 4 5 7 7 8 7 6
10 10 6 6 9 7 5 5 6 6 7 6 5 4 3 3 1 1 2 4 5 4 7 4 6 5 3 4 6 7 7 5 5 5 7 6 5 4
9 6 3 5 6 6 4 4 5 5 5 3 4 3 3 2 0 1 4 3 3 4 2 3 6 8 6 5 6 7 7 7 7 8 5 6 3 4
3 5 6 6 7 6 6 5 5 6 5 4 4 4 3 3 3 3 3 4 4 4 4 3 7 6 3 8 8 8 4 7 7 6 7 5 4 4
5 5 6 6 7 6 5 5 4 5 5 5 5 4 4 4 5 4 4 4 4 5 4 5 6 6 7 7 2 6 8 8 8 6 4 2 4 6
5 7 7 6 5 6 5 5 5 6 6 5 5 4 4 5 5 4 5 5 6 4 2 2 4 7 7 7 6 3 5 10 8 8 5 3 4 7
6 5 4 5 5 5 5 6 6 6 6 5 4 4 5 5 5 6 5 6 8 7 8 7 5 6 5 5 6 5 3 9 3 9 7 5 4 4
3 4 4 4 5 5 5 5 5 4 4 5 5 4 5 5 6 7 7 8 7 7 6 6 6 5 2 3 7 9 6 3 6 9 8 4 6 6
3 4 3 3 4 5 6 6 5 5 5 5 5 4 5 5 5 5 6 7 7 8 8 7 5 2 3 1 5 7 8 8 7 6 4 9 3 2
Wind_Direction
221 220 225 232 212 210 206 191 177 279 271 270 269 237 245 232 230 221 223 218 220 218 218 222 222 229 230 234 241 246 246 261 275 285 280 265 263 282
221 212 224 233 221 210 222 222 213 208 278 214 250 278 266 241 232 224 230 223 221 219 215 219 220 224 221 222 227 230 243 251 266 277 268 257 242 216
222 213 230 212 238 232 215 219 216 191 243 278 257 277 268 256 253 231 233 232 234 221 220 220 217 215 214 219 222 220 221 232 249 252 260 239 226 212
232 222 230 220 227 229 229 235 232 199 221 270 262 252 237 232 245 248 239 239 235 228 218 222 222 214 214 211 210 222 204 197 212 229 241 250 220 223
227 226 231 210 235 227 220 231 232 226 218 243 274 251 257 243 255 248 250 246 241 237 223 223 222 213 221 208 209 191 181 184 211 213 212 227 213 217
228 223 225 217 230 231 230 232 232 231 227 243 255 265 268 253 246 262 266 238 249 236 234 234 221 223 218 201 182 176 163 197 197 246 243 227 207 210
230 230 228 225 226 224 225 235 226 236 245 252 260 265 261 259 250 260 248 263 262 235 234 248 234 229 222 196 177 172 168 181 197 206 229 226 206 215
228 230 233 226 230 229 228 234 227 226 241 247 260 260 265 264 261 251 259 263 281 183 225 263 254 256 217 171 151 163 169 177 191 188 206 222 212 205
230 232 230 229 223 235 236 235 236 231 237 252 260 258 271 259 264 265 254 252 258 267 209 256 197 235 177 169 171 164 180 171 183 191 202 207 206 203
230 233 235 239 224 220 235 243 239 233 228 235 247 260 261 266 261 260 269 268 272 255 210 262 252 239 197 184 170 176 180 177 177 189 195 202 192 166
238 236 231 236 229 210 230 246 254 253 230 228 235 249 259 265 263 284 268 266 272 267 202 254 251 150 134 106 163 182 181 165 165 170 203 175 146 126
239 240 226 229 221 213 226 242 257 259 255 255 237 252 255 263 267 246 264 267 271 283 202 206 156 124 107 25 131 162 160 143 162 185 157 150 147 129
232 237 235 213 222 222 218 234 241 253 258 255 259 254 240 240 252 260 236 239 256 250 202 130 96 86 63 86 71 99 124 116 129 134 129 144 142 140
230 231 234 210 217 226 219 231 241 249 263 262 263 266 265 257 252 247 243 237 248 266 147 136 126 137 136 132 126 85 88 111 127 119 117 105 83 79
232 231 223 209 221 232 230 233 220 230 235 239 249 249 250 276 295 289 324 73 64 77 138 102 97 104 81 73 123 122 126 77 107 131 135 140 143 141
254 255 233 207 204 215 211 201 211 213 214 218 224 248 277 285 288 323 93 116 95 75 41 56 97 113 83 93 119 138 127 136 138 127 120 106 111 110
218 222 183 201 214 213 210 195 192 190 199 198 214 229 266 289 34 92 127 126 117 136 98 35 72 95 76 123 106 126 131 124 140 142 131 114 85 104
168 205 210 207 214 206 199 196 189 192 200 195 201 216 199 181 139 108 127 139 139 130 131 140 139 120 100 67 56 128 94 133 145 148 132 127 154 173
219 201 213 206 213 201 190 179 183 198 178 192 196 184 170 155 141 149 149 129 122 128 153 146 156 150 144 127 85 36 133 146 147 147 127 118 171 180
214 215 214 204 190 191 179 169 172 172 185 181 179 161 162 156 162 160 166 158 151 140 155 87 148 169 164 157 150 134 31 145 160 150 138 121 90 89
197 200 187 191 188 171 170 175 174 180 175 172 187 172 169 166 175 168 162 164 148 161 164 169 158 96 104 111 112 140 137 45 106 159 155 154 152 152
171 173 172 181 171 169 169 168 164 162 172 183 193 177 174 171 177 167 168 167 173 162 150 131 127 141 120 168 156 149 153 130 66 80 42 70 171 190
152 147 145 145 151 162 159 164 172 180 185 194 194 174 169 165 164 165 161 172 166 159 150 145 147 155 109 151 139 154 168 175 167 175 173 4 229 30